Wind_Speed
20 15 17 19 18 17 15 13 17 16 18 25 13 16 18 22 21 19 21 19 19 18 20 17 16 16 17 16 12 12 9 12 10 10 7 7 8 8 8 9 12 14 15 16
16 20 21 18 20 20 19 11 12 13 16 11 16 20 18 18 20 23 23 21 20 21 22 20 19 16 16 16 12 11 9 8 7 4 4 5 6 7 10 10 11 11 8 9
20 22 22 18 16 16 16 11 10 15 12 4 12 18 13 15 18 22 23 23 23 24 25 26 23 21 18 17 15 14 11 6 6 4 5 5 2 7 6 2 2 3 10 14
23 23 21 18 17 17 18 12 18 15 14 11 15 13 18 23 18 15 23 25 26 26 27 26 25 24 22 20 18 16 15 11 5 7 4 8 9 7 8 10 10 15 19 19
22 21 23 21 19 16 12 16 18 13 11 14 14 9 15 16 16 16 24 27 27 29 29 28 26 24 24 21 21 18 15 14 13 6 8 7 5 7 3 7 13 16 8 12
22 21 19 20 20 16 18 10 17 9 11 14 17 12 6 9 17 17 12 25 29 29 30 29 29 29 26 24 21 18 21 14 8 4 1 1 1 4 8 9 9 5 7 6
23 25 15 14 18 20 18 11 8 9 11 13 15 15 10 19 22 21 23 49 31 30 29 28 31 34 31 27 24 23 19 13 9 6 6 3 4 5 3 5 5 9 5 6
16 18 20 16 21 15 13 16 9 13 12 13 13 9 16 10 18 39 37 41 34 34 32 32 31 34 34 30 27 23 20 15 11 9 9 6 3 3 2 6 11 12 6 7
18 21 21 22 17 16 15 17 18 18 13 6 7 9 11 9 9 6 10 14 27 34 34 35 33 33 34 30 30 26 23 17 13 12 11 4 3 3 6 12 13 4 6 8
18 15 21 17 16 16 16 17 13 12 9 10 8 9 10 15 10 11 10 7 9 27 34 32 34 35 35 31 29 28 26 21 15 16 9 3 6 7 7 6 6 7 9 11
25 18 19 21 15 21 15 11 9 12 10 9 9 4 13 11 8 7 8 10 5 12 25 32 29 33 36 31 31 30 26 23 19 17 13 12 10 7 8 8 6 8 10 12
25 8 13 27 20 23 21 16 10 9 9 8 9 5 13 11 10 11 8 3 6 5 16 30 29 30 34 32 32 31 26 25 21 17 13 9 8 7 10 10 8 10 11 12
18 13 10 14 19 20 18 16 20 17 13 13 11 5 7 7 7 7 6 4 10 14 13 26 26 30 34 34 33 31 29 24 20 17 16 11 10 9 9 9 8 9 12 11
18 19 13 14 16 17 22 22 22 20 12 14 12 6 11 11 9 10 7 7 8 16 18 26 27 31 37 38 39 34 32 25 22 19 15 11 12 11 9 9 9 12 10 13
14 11 16 18 20 19 17 23 21 20 19 17 11 8 3 3 8 2 1 4 8 8 21 27 31 32 37 37 38 35 32 26 22 22 16 14 15 13 9 10 11 10 11 14
11 8 11 18 18 18 21 23 23 24 23 23 20 16 21 19 16 9 1 6 10 8 14 16 33 35 35 38 39 36 32 29 25 19 18 15 15 13 12 11 13 13 14 17
14 13 13 16 17 20 20 21 21 18 17 15 13 5 12 11 4 2 2 6 9 11 13 19 22 30 31 38 38 35 34 29 26 24 19 17 18 15 15 14 13 15 16 16
10 14 12 14 17 20 17 19 17 14 15 15 16 17 8 8 2 3 1 8 7 12 14 17 14 18 28 33 34 32 30 28 24 24 19 18 18 17 17 17 15 16 16 16
12 5 11 14 15 14 20 5 8 15 16 10 7 9 4 6 4 8 15 7 3 7 9 14 13 18 25 31 30 29 27 26 27 27 23 21 19 19 20 19 17 17 17 17
23 27 18 4 11 18 15 10 6 17 12 18 21 3 10 6 5 6 12 5 2 5 6 8 11 15 25 31 30 30 29 27 27 24 22 20 20 20 20 19 17 16 18 20
14 8 11 11 12 17 13 7 15 7 9 20 3 10 8 4 10 11 3 4 5 6 6 7 12 17 27 30 28 30 30 29 27 22 21 19 20 20 20 20 18 20 22 28
16 4 9 12 15 17 12 11 10 10 11 7 11 14 8 4 5 10 16 9 11 10 10 11 14 20 24 24 25 28 26 24 21 19 18 18 19 20 17 17 18 19 22 22
9 9 7 3 2 24 15 21 23 10 10 9 6 5 6 8 10 12 14 22 15 14 13 15 19 17 17 24 25 17 15 13 14 11 13 18 17 16 20 21 18 20 20 19
6 9 0 5 7 5 13 20 15 12 7 4 3 4 8 11 13 13 13 19 13 13 16 15 18 20 22 22 20 15 18 15 13 14 16 14 18 21 19 21 19 13 15 17
14 5 5 11 11 16 18 12 9 9 8 9 9 10 12 14 14 14 14 9 8 8 12 14 18 19 17 10 18 9 17 12 16 12 10 15 13 14 17 23 17 13 18 20
10 3 1 9 13 12 14 9 11 10 10 9 10 10 11 12 15 10 7 8 10 11 11 13 12 11 7 5 11 5 18 14 12 7 8 10 12 11 12 10 9 9 13 16
Wind_Direction
205 214 218 216 203 227 212 221 157 244 155 163 174 172 176 185 164 176 174 179 179 177 166 165 170 166 169 173 179 189 192 199 216 235 239 248 259 274 292 283 267 274 289 285
195 216 221 221 213 233 237 205 203 203 154 179 154 183 190 189 174 175 179 184 186 175 164 169 167 174 171 174 177 175 202 216 207 219 253 285 292 295 304 295 286 282 287 301
207 212 232 232 215 229 251 238 222 199 150 178 199 155 137 259 195 177 185 187 188 180 173 174 176 178 177 177 181 184 189 204 200 219 292 299 341 297 294 294 266 278 266 276
226 212 221 234 231 206 232 216 261 229 176 212 179 230 168 218 188 195 192 186 191 185 179 180 183 182 180 180 182 191 183 187 207 204 184 256 277 287 272 282 278 274 285 296
214 232 211 224 234 231 240 227 231 238 240 235 231 231 158 185 188 198 202 194 197 187 188 185 188 186 182 178 179 193 180 182 204 242 210 235 245 232 234 279 274 297 335 324
237 219 224 210 227 221 222 255 205 224 253 252 228 216 159 180 211 215 246 214 198 193 190 190 188 184 184 180 183 185 195 197 199 230 236 14 328 265 243 245 259 331 281 309
221 232 201 209 204 214 213 206 208 226 231 242 238 223 237 176 216 206 177 223 200 196 193 191 186 182 184 183 185 193 202 193 197 192 184 210 252 250 313 345 307 273 331 293
210 222 198 202 215 201 193 221 214 207 232 230 208 184 222 194 176 202 207 205 197 194 194 190 191 185 183 185 187 195 206 196 203 187 198 226 279 154 233 268 238 284 279 276
198 228 188 208 224 189 185 234 241 258 265 255 181 198 222 160 159 159 181 216 197 191 196 191 187 185 182 187 193 201 214 201 201 192 209 243 258 300 210 244 266 283 277 279
196 223 187 209 206 224 219 207 234 249 261 281 237 234 215 157 158 173 182 214 228 200 192 195 191 186 186 189 196 203 217 211 200 191 224 193 236 255 270 276 290 286 292 296
237 207 191 193 192 216 208 230 217 247 229 253 256 82 100 136 155 147 167 180 201 234 206 192 194 189 186 190 196 202 212 212 203 191 200 204 230 223 241 266 278 275 274 279
236 244 250 195 195 206 226 197 214 245 254 281 303 313 132 141 152 170 127 182 164 215 275 183 191 189 181 188 195 201 205 211 204 200 203 225 241 215 219 245 262 272 281 280
220 237 245 236 199 197 222 217 214 224 241 259 255 186 121 152 143 127 129 74 178 179 181 184 197 197 188 194 196 199 203 203 204 197 205 220 229 233 237 241 264 278 283 295
217 215 230 244 231 196 201 216 234 252 235 238 233 202 179 199 169 146 191 198 194 196 204 194 202 204 196 194 197 197 199 202 202 211 205 217 236 251 242 242 258 270 287 291
217 226 238 233 259 267 239 210 219 238 263 270 249 230 212 180 200 75 66 281 265 244 207 206 201 205 201 194 196 195 196 197 200 204 204 213 223 239 247 240 263 279 280 285
193 212 234 253 253 243 252 264 208 214 225 243 253 245 197 188 157 170 286 302 290 253 257 242 205 205 201 194 194 189 191 200 199 205 215 218 221 228 241 239 252 269 277 278
192 205 223 240 242 255 257 247 251 238 227 235 259 283 107 136 133 36 354 298 291 294 281 277 227 209 198 190 188 189 193 204 210 217 217 218 218 225 231 238 246 256 271 288
229 219 208 232 243 243 249 265 252 247 241 241 216 206 139 94 7 259 199 273 299 283 278 280 238 211 196 185 185 192 200 203 208 222 222 221 224 228 232 236 248 255 272 282
343 251 213 228 232 244 252 304 38 36 325 291 256 210 171 89 323 26 12 226 246 278 274 258 251 212 194 185 189 192 196 204 213 221 228 226 228 229 230 236 247 251 263 270
197 170 253 255 248 255 263 182 95 358 311 11 13 327 176 147 284 91 60 55 305 282 266 239 225 201 194 184 187 193 196 209 219 227 231 234 232 228 237 244 246 248 262 264
231 214 240 222 248 265 287 114 105 174 248 308 330 67 25 357 24 17 142 203 235 243 234 213 203 193 182 179 186 197 199 207 226 234 232 236 232 231 238 240 247 253 270 286
273 262 253 246 249 247 332 104 154 82 97 43 33 38 46 10 331 328 324 275 203 217 207 190 180 175 179 189 194 199 208 224 227 231 228 234 236 237 241 247 257 269 274 279
213 169 172 310 6 330 65 95 104 96 78 53 38 353 311 289 294 299 308 295 215 199 204 191 183 184 195 192 194 185 193 209 213 221 233 237 235 242 239 245 263 284 287 287
62 9 201 141 154 153 315 62 52 58 56 32 27 334 332 323 321 320 302 289 211 204 192 188 190 179 184 185 182 205 208 223 256 259 245 237 236 245 246 259 253 266 274 269
250 102 339 271 54 228 84 76 57 46 32 19 9 357 349 338 323 309 288 265 151 142 151 165 166 157 157 166 152 158 21 351 313 246 241 242 243 260 270 259 242 254 274 281
358 114 37 73 49 60 60 43 62 37 15 12 9 354 343 330 326 312 134 136 135 144 150 171 167 176 225 306 323 357 295 271 237 218 226 243 250 270 287 297 296 290 272 275
Height
1474 1477 1476 1463 1461 1456 1457 1463 1483 1473 1478 1483 1492 1495 1497 1500 1506 1514 1518 1523 1526 1529 1533 1538 1541 1544 1548 1552 1555 1557 1560 1561 1563 1563 1563 1564 1564 1564 1564 1564 1565 1565 1565 1563
1471 1472 1459 1454 1456 1456 1454 1461 1467 1465 1465 1472 1494 1500 1494 1496 1499 1506 1513 1519 1522 1526 1530 1535 1540 1544 1548 1551 1552 1556 1558 1559 1560 1561 1562 1563 1563 1563 1562 1562 1562 1561 1561 1561
1466 1462 1455 1452 1454 1460 1457 1464 1463 1467 1465 1470 1479 1496 1506 1501 1496 1499 1506 1513 1517 1522 1528 1533 1537 1541 1545 1548 1551 1554 1556 1558 1559 1560 1560 1560 1561 1562 1562 1563 1561 1560 1560 1559
1458 1452 1453 1453 1455 1457 1471 1457 1458 1460 1471 1491 1473 1507 1501 1497 1492 1493 1498 1505 1511 1518 1524 1530 1535 1538 1541 1545 1549 1551 1554 1556 1557 1559 1560 1560 1560 1560 1560 1560 1559 1559 1558 1556
1457 1449 1450 1456 1453 1451 1463 1454 1459 1458 1468 1475 1476 1494 1488 1484 1491 1488 1492 1497 1504 1512 1518 1525 1531 1535 1539 1542 1546 1548 1551 1553 1554 1556 1556 1557 1557 1557 1558 1558 1557 1557 1556 1556
1444 1443 1442 1446 1446 1449 1452 1456 1453 1459 1469 1490 1473 1480 1493 1498 1489 1486 1495 1496 1501 1505 1512 1519 1525 1530 1536 1540 1544 1545 1547 1549 1551 1552 1553 1553 1554 1554 1555 1555 1556 1556 1556 1555
1445 1439 1434 1440 1448 1445 1449 1463 1489 1499 1495 1494 1457 1471 1473 1466 1470 1477 1487 1492 1492 1498 1506 1514 1519 1525 1530 1534 1540 1542 1544 1546 1548 1550 1551 1552 1552 1552 1553 1553 1554 1554 1554 1554
1455 1460 1436 1436 1440 1446 1451 1459 1479 1506 1491 1476 1452 1481 1470 1453 1457 1469 1478 1479 1483 1490 1497 1506 1514 1519 1525 1530 1535 1538 1540 1542 1544 1546 1548 1549 1549 1550 1551 1551 1550 1551 1550 1550
1445 1447 1425 1431 1433 1435 1453 1464 1445 1460 1452 1470 1462 1456 1449 1452 1458 1464 1468 1473 1477 1483 1492 1498 1506 1513 1520 1526 1530 1533 1538 1540 1541 1543 1544 1545 1545 1546 1547 1548 1548 1548 1548 1547
1426 1447 1424 1428 1434 1434 1441 1444 1469 1459 1489 1493 1465 1463 1462 1456 1460 1462 1467 1471 1475 1479 1485 1493 1501 1507 1513 1521 1526 1528 1535 1537 1538 1540 1541 1542 1543 1544 1544 1544 1544 1545 1545 1544
1413 1421 1427 1424 1435 1443 1442 1450 1447 1448 1458 1479 1483 1482 1449 1455 1456 1460 1464 1469 1475 1478 1482 1487 1496 1502 1507 1516 1522 1524 1530 1534 1536 1537 1538 1539 1540 1541 1541 1541 1542 1542 1542 1541
1409 1417 1433 1425 1417 1423 1428 1441 1446 1468 1473 1462 1466 1471 1440 1448 1454 1458 1462 1468 1472 1477 1480 1484 1492 1498 1504 1510 1516 1520 1524 1530 1533 1534 1534 1535 1536 1537 1539 1539 1539 1539 1539 1538
1410 1421 1441 1435 1423 1420 1434 1434 1439 1444 1447 1465 1474 1469 1445 1448 1452 1456 1461 1465 1469 1472 1477 1482 1489 1494 1498 1504 1510 1514 1520 1526 1529 1531 1531 1531 1533 1533 1534 1535 1536 1536 1535 1534
1403 1413 1429 1441 1432 1422 1437 1435 1434 1437 1453 1455 1454 1456 1451 1449 1451 1457 1462 1464 1467 1470 1473 1476 1481 1488 1490 1495 1501 1508 1514 1521 1525 1526 1527 1527 1529 1530 1531 1533 1533 1532 1532 1531
1402 1422 1419 1419 1417 1417 1421 1428 1431 1440 1439 1452 1444 1456 1453 1461 1460 1459 1459 1463 1465 1465 1467 1470 1474 1480 1485 1490 1495 1502 1509 1517 1520 1523 1524 1525 1526 1527 1527 1528 1529 1528 1528 1528
1400 1421 1422 1429 1417 1418 1424 1416 1418 1424 1429 1432 1433 1438 1430 1443 1452 1456 1457 1460 1462 1461 1464 1467 1468 1472 1477 1484 1490 1497 1504 1510 1516 1518 1518 1520 1523 1523 1524 1525 1525 1524 1524 1524
1406 1415 1429 1440 1424 1424 1431 1416 1412 1412 1414 1423 1438 1431 1435 1443 1448 1451 1455 1459 1461 1459 1462 1464 1465 1468 1473 1477 1484 1491 1499 1505 1510 1514 1516 1516 1518 1519 1519 1520 1519 1520 1521 1520
1409 1415 1418 1433 1427 1450 1415 1400 1400 1406 1411 1411 1416 1423 1433 1437 1446 1447 1448 1453 1453 1459 1460 1461 1462 1466 1470 1475 1481 1488 1494 1501 1506 1509 1511 1511 1513 1514 1514 1514 1515 1516 1515 1514
1420 1413 1423 1429 1429 1418 1413 1407 1410 1435 1428 1413 1412 1418 1427 1436 1446 1446 1442 1444 1453 1457 1458 1458 1460 1463 1467 1473 1479 1485 1491 1497 1502 1503 1504 1505 1507 1508 1509 1510 1511 1511 1511 1510
1415 1427 1441 1410 1433 1439 1408 1402 1408 1424 1438 1426 1431 1423 1428 1437 1447 1446 1443 1449 1454 1457 1457 1457 1458 1460 1464 1469 1475 1482 1487 1492 1495 1496 1498 1500 1501 1504 1505 1505 1506 1506 1505 1505
1409 1411 1418 1420 1427 1415 1399 1405 1410 1452 1456 1435 1436 1434 1437 1439 1444 1444 1447 1449 1453 1456 1457 1457 1458 1459 1462 1468 1472 1478 1484 1487 1489 1491 1493 1495 1497 1498 1500 1500 1501 1501 1501 1499
1412 1416 1415 1411 1421 1430 1405 1413 1429 1436 1434 1437 1434 1436 1439 1445 1447 1447 1446 1447 1447 1452 1454 1457 1458 1460 1463 1467 1471 1475 1479 1483 1486 1488 1490 1492 1492 1494 1495 1496 1495 1496 1495 1493
1412 1416 1437 1431 1448 1438 1425 1423 1432 1439 1438 1440 1441 1442 1446 1447 1446 1445 1443 1443 1444 1447 1452 1454 1456 1459 1462 1465 1468 1471 1475 1478 1481 1484 1486 1488 1489 1489 1490 1490 1488 1489 1489 1488
1415 1420 1420 1434 1442 1442 1438 1421 1430 1435 1439 1440 1442 1444 1443 1443 1441 1439 1440 1442 1442 1444 1448 1452 1457 1458 1461 1462 1465 1469 1466 1471 1475 1479 1481 1483 1483 1483 1485 1483 1479 1479 1483 1483
1428 1418 1429 1422 1442 1438 1431 1432 1434 1435 1438 1440 1439 1439 1440 1439 1438 1437 1438 1441 1441 1444 1445 1448 1452 1453 1455 1462 1450 1446 1450 1471 1477 1481 1478 1479 1479 1478 1478 1479 1468 1472 1473 1478
1410 1427 1421 1430 1425 1431 1435 1438 1435 1440 1443 1441 1440 1441 1440 1441 1439 1435 1438 1440 1441 1443 1447 1447 1450 1453 1456 1458 1461 1457 1468 1469 1472 1475 1476 1477 1478 1476 1476 1473 1472 1471 1473 1474